Weather History for Quincy, IL

Change the Weather History Date:

Thursday, January 27, 2011

  Actual Average Record
Temperature  
Mean Temperature 26 °F 27 °F  
Max Temperature 32 °F 35 °F 65 °F (1968)
Min Temperature 19 °F 19 °F -16 °F (1936)
Degree Days  
Heating Degree Days 40 38  
Month to date heating degree days 1046  
Since 1 July heating degree days 3237  
Cooling Degree Days 0 0  
Month to date cooling degree days 0  
Year to date cooling degree days 0  
Moisture  
Dew Point 19 °F    
Average Humidity 86    
Maximum Humidity 93    
Minimum Humidity 66    
Precipitation  
Precipitation 0.00 in 0.05 in 1.23 in (1916)
Month to date precipitation 1.33  
Year to date precipitation 1.33  
Sea Level Pressure  
Sea Level Pressure 29.93 in    
Wind  
Wind Speed 10 mph (WSW)    
Max Wind Speed 17 mph    
Max Gust Speed -    
Visibility 4 miles    
Events      
T = Trace of Precipitation, MM = Missing Value Source: NWS Daily Summary

Daily Weather History Graph

Daily Weather History Graph

Search for Another Location

Airport:

Trip Planner

Search our weather history database for the weather conditions in past years. The results will help you decide how hot, cold, wet, or windy it might be!

Date:

Astronomy

Jan. 27, 2011 Rise Set
Actual Time 7:17 AM CST 5:17 PM CST
Civil Twilight 6:48 AM CST 5:46 PM CST
Nautical Twilight 6:16 AM CST 6:19 PM CST
Astronomical Twilight 5:44 AM CST 6:51 PM CST
Moon 1:47 AM CST (1/27) 11:36 AM CST (1/27)
Length of Visible Light 10h 58m
Length of Day
10h 00m
Last Quarter, 37% of the Moon is Illuminated
Jan 27
Last Quarter
Feb 2
New
Feb 11
First Quarter
Feb 18
Full
Feb 24
Last Quarter

Hourly Weather History & Observations

Time (CST) Temp. Windchill Dew Point Humidity Pressure Visibility Wind Dir Wind Speed Gust Speed Precip Events Conditions
12:54 AM 19.9 °F 12.1 °F 18.0 °F 92% 30.09 in 5.0 mi West 5.8 mph - N/A   Overcast
1:54 AM 19.9 °F 9.3 °F 18.0 °F 92% 30.08 in 4.0 mi WSW 9.2 mph - N/A   Overcast
2:52 AM 19.4 °F 7.9 °F 17.6 °F 93% 30.02 in 2.5 mi SW 10.4 mph - N/A   Overcast
2:54 AM 19.0 °F 8.2 °F 17.1 °F 92% 30.05 in 2.5 mi SW 9.2 mph - N/A   Overcast
3:16 AM 19.4 °F 7.9 °F 17.6 °F 93% 30.00 in 3.0 mi WSW 10.4 mph - N/A   Overcast
3:54 AM 19.4 °F 7.9 °F 17.6 °F 93% 29.99 in 4.0 mi WSW 10.4 mph - N/A   Overcast
4:54 AM 19.9 °F 10.1 °F 18.0 °F 92% 30.01 in 3.0 mi SW 8.1 mph - N/A   Overcast
5:34 AM 19.4 °F 8.6 °F 17.6 °F 93% 29.98 in 4.0 mi SW 9.2 mph - N/A   Overcast
5:54 AM 19.9 °F 8.6 °F 18.0 °F 92% 30.01 in 4.0 mi WSW 10.4 mph - N/A   Overcast
6:54 AM 19.0 °F 6.8 °F 17.1 °F 92% 29.99 in 2.5 mi SSW 11.5 mph - N/A   Overcast
7:23 AM 19.4 °F 7.9 °F 17.6 °F 93% 29.96 in 1.8 mi SSW 10.4 mph - N/A   Overcast
7:30 AM 19.4 °F 8.6 °F 17.6 °F 93% 29.96 in 1.8 mi SSW 9.2 mph - N/A   Overcast
7:54 AM 19.0 °F 6.8 °F 17.1 °F 92% 29.98 in 1.8 mi SSW 11.5 mph - N/A   Overcast
8:04 AM 19.4 °F 6.6 °F 17.6 °F 93% 29.95 in 2.0 mi SW 12.7 mph - N/A   Overcast
8:54 AM 19.9 °F 6.7 °F 18.0 °F 92% 29.97 in 2.5 mi SSW 13.8 mph - N/A   Overcast
9:07 AM 19.4 °F 6.6 °F 17.6 °F 93% 29.92 in 2.5 mi SSW 12.7 mph - N/A   Overcast
9:31 AM 19.4 °F 4.5 °F 17.6 °F 93% 29.89 in 3.0 mi South 17.3 mph - N/A   Mostly Cloudy
9:40 AM 19.4 °F 4.5 °F 17.6 °F 93% 29.88 in 2.5 mi South 17.3 mph - N/A   Mostly Cloudy
9:50 AM 19.4 °F 5.0 °F 17.6 °F 93% 29.88 in 3.0 mi South 16.1 mph - N/A   Mostly Cloudy
9:54 AM 21.0 °F 7.6 °F 18.0 °F 88% 29.91 in 3.0 mi South 15.0 mph - N/A   Scattered Clouds
10:54 AM 21.9 °F 8.7 °F 18.0 °F 85% 29.89 in 6.0 mi SSW 15.0 mph - N/A   Scattered Clouds
11:54 AM 26.1 °F 14.0 °F 19.0 °F 75% 29.86 in 8.0 mi SSW 15.0 mph - N/A   Mostly Cloudy
12:54 PM 28.0 °F 17.0 °F 19.9 °F 72% 29.82 in 8.0 mi SW 13.8 mph - N/A   Scattered Clouds
1:54 PM 30.0 °F 20.0 °F 21.0 °F 69% 29.81 in 8.0 mi West 12.7 mph - N/A   Partly Cloudy
2:54 PM 32.0 °F 24.8 °F 21.9 °F 66% 29.82 in 7.0 mi WNW 8.1 mph - N/A   Clear
3:54 PM 30.0 °F 22.4 °F 21.9 °F 72% 29.83 in 7.0 mi WNW 8.1 mph - N/A   Clear
4:54 PM 30.0 °F 25.2 °F 21.0 °F 69% 29.84 in 6.0 mi West 4.6 mph - N/A   Haze
5:54 PM 28.0 °F 22.8 °F 21.0 °F 75% 29.85 in 7.0 mi West 4.6 mph - N/A   Clear
6:54 PM 24.1 °F 18.2 °F 18.0 °F 77% 29.88 in 7.0 mi WNW 4.6 mph - N/A   Clear
7:54 PM 27.0 °F 21.6 °F 21.0 °F 78% 29.89 in 7.0 mi WNW 4.6 mph - N/A   Overcast
8:54 PM 28.9 °F 25.2 °F 21.9 °F 75% 29.89 in 7.0 mi WNW 3.5 mph - N/A   Mostly Cloudy
9:54 PM 24.8 °F 19.1 °F 19.4 °F 80% 29.86 in 7.0 mi NW 4.6 mph - N/A   Clear
10:54 PM 23.0 °F 15.8 °F 19.0 °F 85% 29.91 in 6.0 mi WNW 5.8 mph - N/A   Scattered Clouds
11:54 PM 21.0 °F 16.2 °F 18.0 °F 88% 29.91 in 5.0 mi WNW 3.5 mph - N/A   Partly Cloudy